Date,TemperatureHighF,TemperatureAvgF,TemperatureLowF,DewpointHighF,DewpointAvgF,DewpointLowF,HumidityHigh,HumidityAvg,HumidityLow,PressureMaxIn,PressureMinIn,WindSpeedMaxMPH,WindSpeedAvgMPH,GustSpeedMaxMPH,PrecipitationSumIn
2013-9-1,96.2,82.0,70.7,62.9,55.8,42.5,74,45,17,30.05,29.93,18,5,24,0.00
2013-9-2,97.8,82.1,65.8,57.5,52.2,46.9,70,39,18,30.05,29.92,17,5,25,0.00
2013-9-3,98.0,84.7,71.5,55.5,52.5,49.1,53,35,20,30.05,29.94,17,4,24,0.00
2013-9-4,98.3,82.6,69.5,66.5,54.9,50.9,60,40,21,30.08,29.98,18,3,26,0.05
2013-9-5,98.9,84.5,68.9,62.0,53.6,45.3,69,38,18,30.06,29.95,17,4,29,0.00
2013-9-6,99.9,84.4,69.2,52.6,49.1,43.6,53,31,16,30.05,29.92,16,4,27,0.00
2013-9-7,94.9,82.0,73.0,58.6,53.5,46.4,55,39,21,30.04,29.93,15,4,22,0.00
2013-9-8,96.3,80.0,62.7,57.4,47.5,33.0,73,37,12,29.99,29.85,13,3,20,0.00
2013-9-9,94.6,81.2,71.1,56.6,48.4,38.3,55,34,15,29.95,29.80,15,5,22,0.00
2013-9-10,89.9,77.3,63.9,57.7,46.0,38.3,60,35,17,29.99,29.87,17,5,22,0.00
2013-9-11,91.3,76.0,59.6,47.2,41.3,34.7,59,33,15,30.04,29.96,17,5,24,0.00
2013-9-12,93.4,76.2,59.0,46.1,38.5,31.3,58,30,11,30.04,29.91,13,4,20,0.00
2013-9-13,94.6,77.4,57.6,42.4,36.8,30.6,44,25,14,29.98,29.79,12,3,17,0.00
2013-9-14,98.4,80.4,61.6,44.7,38.9,35.6,45,25,12,29.90,29.77,13,2,17,0.00
2013-9-15,98.8,81.3,61.0,40.9,37.9,33.8,44,23,12,29.93,29.83,14,3,22,0.00
2013-9-16,96.3,80.6,60.6,41.3,37.3,33.6,45,23,12,29.98,29.85,19,6,27,0.00
2013-9-17,90.4,77.6,64.7,43.9,34.2,26.9,43,22,11,29.92,29.78,20,8,29,0.00
2013-9-18,87.8,71.4,53.5,42.5,34.9,25.0,57,30,11,29.91,29.80,10,2,15,0.00
2013-9-19,92.9,73.5,51.1,41.1,33.7,24.6,55,28,10,29.96,29.83,10,2,15,0.00
2013-9-20,91.5,72.5,55.0,47.4,33.7,27.6,50,27,10,29.93,29.85,21,6,31,0.00
2013-9-21,83.9,66.5,51.0,50.0,41.2,15.7,79,47,8,29.93,29.79,22,8,31,0.00
2013-9-22,75.9,62.3,51.9,46.0,35.5,24.0,66,41,15,30.00,29.84,15,7,21,0.00
2013-9-23,65.8,51.5,45.3,37.6,34.9,31.1,64,54,34,30.05,29.96,2,0,4,0.00
2013-9-25,84.4,69.1,57.2,43.5,34.4,23.8,48,31,13,30.00,29.71,24,15,34,0.00
2013-9-26,68.0,58.2,51.0,46.0,29.7,15.9,66,37,14,29.99,29.76,18,9,26,0.00
2013-9-27,73.8,57.7,40.6,29.0,22.7,15.8,54,29,13,30.12,29.97,11,2,21,0.00
2013-9-28,81.6,62.3,40.7,24.7,19.3,12.9,40,21,10,30.16,30.06,10,2,14,0.00
2013-9-29,89.3,67.6,45.2,23.4,19.6,15.2,38,18,7,30.16,30.01,12,4,17,0.00
2013-9-30,88.6,67.9,49.5,30.0,23.7,17.2,31,20,9,30.09,29.93,14,4,20,0.00